Location: Newark
(39.2833°N, 16.3333°E)
Time: 08:32:21
(UTC+00:00)

Envisat - Pass Details

Date: 27 October 2019
Orbit: 764 x 766 km, 98.1° (Epoch: 13 November)

Event Time Altitude Azimuth Distance (km) Brightness Sun altitude
Rises 16:27:50 0° 149° (SSE) 3,219 6.0 -6.0°
Reaches altitude 10° 16:30:12 10° 144° (SE) 2,296 5.2 -6.5°
Maximum altitude 16:35:01 46° 72° (ENE) 1,018 3.3 -7.4°
Drops below altitude 10° 16:39:52 10° 360° (N) 2,310 5.4 -8.3°
Sets 16:42:14 0° 354° (N) 3,240 6.2 -8.8°
